Theta_e
312 315 314 315 315 313 312 311 311 312 312 311 311 312 312 311 310 310 310 310 309 308 309 310 309 309 309 308 308 308 308 308 308 308 309 309 309 309 309 310 310 309 310 309 307 307 307 307 307 307 307 307 306 306 305 305 306 306 306 306 305 306 305 304 304 303 303 303 304 303 303 304 304 304 304 304 305 305 303 302 300 298 297 296 295 295
310 314 315 315 313 313 313 311 310 311 311 311 312 312 311 311 310 309 309 310 308 308 310 311 310 309 308 309 308 308 308 309 309 309 309 309 309 310 310 310 310 311 312 311 309 307 306 307 307 306 307 307 306 306 306 305 306 306 305 305 305 305 304 304 304 303 303 303 303 303 303 303 303 302 302 303 303 303 302 301 299 298 297 296 296 296
312 313 313 312 311 312 315 313 310 311 312 312 312 311 312 311 311 310 310 311 309 308 311 312 310 308 308 308 308 309 309 309 309 309 309 309 309 310 310 310 311 312 312 311 309 307 305 306 307 306 306 306 306 306 306 305 305 305 305 305 305 304 304 304 303 303 303 303 303 303 302 302 301 301 301 301 301 300 299 299 298 297 296 296 296 296
316 316 313 310 309 310 313 313 312 311 311 312 312 311 312 311 312 312 311 313 311 308 311 310 309 309 309 309 309 308 309 309 309 310 309 309 310 310 310 311 311 311 311 309 309 309 306 304 305 305 306 306 306 305 305 305 304 304 304 305 304 304 304 303 303 303 303 302 302 302 301 300 300 299 299 299 298 298 297 297 297 296 296 296 296 296
315 316 313 310 309 310 311 311 311 311 311 313 313 311 312 312 312 311 311 313 311 311 312 310 311 313 314 315 315 311 310 310 309 309 310 310 309 309 310 310 310 310 310 310 310 313 312 307 303 304 305 305 304 305 305 305 304 304 304 304 304 304 303 303 303 302 302 302 301 300 299 299 299 298 297 297 297 296 296 296 296 296 296 296 296 296
313 314 312 312 311 310 310 310 312 314 311 312 314 313 311 311 311 311 312 311 311 316 314 311 313 316 317 319 322 320 318 316 312 312 316 314 310 309 311 310 310 311 311 313 314 315 315 307 302 304 305 304 304 305 305 305 304 304 304 304 304 303 303 302 302 302 301 301 300 300 299 298 298 297 297 297 297 296 296 296 296 295 295 295 295 296
313 312 310 314 315 312 310 311 314 314 310 312 316 317 313 311 312 312 312 311 314 317 312 312 317 316 315 317 321 321 321 320 317 317 317 314 310 312 313 310 310 311 312 317 318 316 315 308 304 305 304 304 304 304 304 304 304 303 303 303 303 303 303 302 301 301 301 300 300 300 299 299 299 298 298 298 297 297 297 296 296 295 295 295 295 295
313 312 309 312 315 315 312 312 314 312 311 315 316 317 317 314 314 313 311 311 315 315 312 313 315 314 315 315 316 317 317 319 318 317 314 312 312 313 312 309 310 312 313 317 317 315 315 309 304 303 303 304 305 304 304 303 303 303 303 302 303 303 302 302 301 301 300 300 300 300 299 299 299 299 299 298 298 297 297 296 296 295 295 295 295 295
312 313 313 313 314 315 314 315 315 311 312 316 313 313 315 314 313 312 311 313 313 312 314 313 312 315 318 315 314 314 316 320 318 315 313 313 316 318 315 308 308 313 313 313 312 312 312 306 301 301 303 305 305 305 304 303 303 303 302 302 302 302 302 302 301 301 300 300 300 300 299 299 299 299 299 299 298 298 297 296 296 295 295 294 294 294
310 312 314 317 316 315 316 317 317 313 313 314 310 311 314 314 314 313 313 316 317 316 316 314 314 317 320 317 317 315 316 322 319 314 315 316 318 323 319 308 307 314 313 311 311 312 308 302 301 302 303 304 305 305 304 304 303 303 303 302 302 302 302 301 301 301 300 300 300 299 299 299 299 299 299 298 298 298 297 296 296 295 295 294 294 294
308 307 309 314 316 316 316 313 310 312 313 311 311 315 316 315 315 316 317 317 318 318 316 316 316 316 319 321 320 319 319 321 319 316 320 319 319 325 320 307 308 313 312 312 314 313 306 301 302 304 303 304 304 304 304 303 303 303 302 302 302 302 301 301 301 300 300 300 300 300 299 299 299 299 298 298 298 297 297 296 296 295 295 294 294 294
308 307 310 315 315 314 314 311 307 309 310 311 315 317 316 317 317 318 320 317 317 320 317 316 315 314 319 319 317 321 321 318 318 316 319 321 322 326 317 304 308 312 310 313 314 314 309 305 304 303 301 302 303 303 303 302 302 302 302 302 301 301 301 300 300 300 300 300 300 300 299 299 299 298 298 298 297 297 296 296 296 295 295 294 294 294
315 313 312 313 312 310 312 312 310 309 309 311 315 315 313 317 318 317 320 319 318 320 315 311 312 313 317 317 316 319 317 314 315 315 317 319 320 321 311 303 309 310 308 311 311 310 308 307 305 301 299 300 299 300 301 301 301 300 300 300 300 301 300 300 299 299 300 299 299 299 298 299 298 298 298 297 297 297 296 296 295 295 294 294 294 294
322 318 310 309 311 311 312 312 312 314 312 310 313 315 314 317 318 318 321 320 318 321 314 309 312 315 317 321 319 315 314 316 316 314 315 315 314 315 309 307 311 308 306 308 307 304 304 303 301 298 298 298 297 298 298 298 299 299 299 299 299 299 299 299 299 299 299 299 299 298 298 298 298 298 298 297 297 297 296 296 295 295 295 294 295 295
321 323 318 314 315 313 310 311 317 320 313 309 313 316 316 319 322 322 324 323 322 324 316 308 314 319 321 324 320 317 319 320 318 316 314 314 315 313 309 310 310 306 304 305 302 301 300 299 297 296 297 296 296 296 296 297 297 297 298 297 297 297 297 297 298 297 298 298 298 298 298 298 297 297 297 297 297 296 296 296 295 295 295 295 295 295
318 324 323 315 312 310 310 313 318 321 315 312 314 315 314 318 321 319 321 324 322 323 318 313 317 319 317 318 317 316 318 317 318 318 314 314 316 313 309 308 305 302 302 301 299 298 296 295 294 294 295 294 295 295 295 295 295 296 296 296 296 296 296 296 296 297 297 296 297 297 297 297 297 297 297 297 297 296 296 296 295 295 295 295 295 295
320 325 321 312 310 309 310 312 313 317 317 313 313 314 314 316 318 317 319 322 321 320 321 319 320 318 316 318 316 315 316 317 320 319 313 312 311 308 306 303 301 300 299 298 297 295 294 293 293 293 293 293 294 294 294 294 294 294 294 295 295 295 295 295 295 296 296 296 296 296 296 296 296 296 296 296 296 296 296 295 295 295 295 295 295 295
323 325 320 315 315 311 307 310 311 312 314 314 315 315 313 314 316 317 319 322 322 321 322 323 321 320 322 321 316 317 320 318 317 316 312 310 307 304 302 300 298 297 296 295 295 294 293 292 292 292 292 292 293 293 293 294 294 294 294 294 294 295 295 295 294 295 295 295 295 295 295 295 296 296 296 296 296 296 296 295 295 295 295 295 295 295
320 321 321 317 317 313 307 308 313 310 308 313 317 314 314 316 317 317 319 320 321 322 323 324 322 321 322 321 318 320 319 314 313 313 308 304 302 300 298 297 296 294 294 294 293 293 293 292 291 291 292 292 292 292 293 293 293 294 294 294 294 294 294 294 294 294 295 295 295 295 295 295 295 295 295 296 296 295 295 295 295 295 295 295 295 295
317 318 322 317 315 316 312 312 317 315 309 309 311 311 313 314 315 317 317 318 321 322 323 324 323 323 323 321 318 317 315 311 311 309 304 300 298 297 296 295 294 294 293 292 292 293 292 291 291 291 291 291 291 292 292 292 292 293 293 293 293 294 294 294 294 294 294 294 294 294 295 295 295 295 295 295 295 295 295 295 295 295 295 295 295 294
317 318 320 317 316 317 317 316 318 320 316 312 312 314 315 314 316 318 317 317 320 321 322 323 323 324 323 319 316 314 311 309 307 304 299 297 296 295 294 294 293 293 292 292 292 292 292 291 291 291 291 291 291 291 291 291 292 292 292 292 292 293 293 293 293 293 293 293 293 293 294 294 294 294 294 295 295 295 295 295 295 295 295 295 294 294
317 319 319 318 318 317 319 319 319 319 319 318 317 319 320 319 319 321 321 319 318 318 321 322 322 323 323 320 316 310 304 301 301 300 297 295 294 293 293 293 292 292 292 292 291 291 291 291 290 290 290 290 290 290 290 291 291 291 291 291 291 292 292 292 292 292 292 292 292 292 293 293 293 293 294 294 294 294 294 295 295 295 295 294 294 294
315 317 318 318 319 319 319 318 318 317 316 316 317 317 319 319 318 321 323 320 318 318 319 320 320 321 325 322 310 302 298 296 295 295 294 294 293 292 292 292 292 292 291 291 291 291 291 290 290 290 290 290 290 290 290 290 290 290 290 290 290 291 291 291 291 291 291 292 292 292 292 292 292 292 293 293 293 294 294 294 294 294 294 294 294 294
312 315 318 318 319 320 319 316 315 315 314 315 316 316 316 317 317 318 318 317 318 319 318 320 320 320 324 318 303 296 297 295 294 293 293 293 292 292 292 292 292 292 291 291 291 291 290 290 290 290 289 289 289 289 290 290 290 290 290 290 290 290 290 290 290 291 291 291 291 291 291 291 291 291 292 292 292 293 293 293 294 294 294 294 293 293
312 315 318 318 319 320 318 316 315 314 316 316 317 317 315 315 317 316 315 315 317 318 318 320 320 320 323 316 302 297 296 294 293 292 292 292 292 292 292 291 291 291 291 291 291 291 291 290 290 289 289 289 289 289 289 289 289 289 289 289 289 289 290 290 289 290 290 290 290 290 290 291 291 291 291 291 291 292 292 292 293 293 293 293 293 293
312 314 317 317 318 318 316 316 314 313 315 315 316 316 314 315 316 315 316 316 317 318 318 318 317 317 319 316 307 301 298 294 292 292 291 292 292 292 292 292 292 291 291 291 291 291 291 290 290 289 289 289 289 289 289 289 289 289 289 289 289 289 289 289 289 289 289 289 289 289 289 289 290 290 290 290 290 290 291 291 292 292 292 292 292 292
312 313 315 316 316 316 315 315 312 310 311 313 314 314 312 312 313 313 315 316 316 317 316 316 316 315 315 315 310 304 300 296 293 291 291 291 291 291 292 292 292 292 291 291 291 291 291 291 290 289 289 289 289 288 289 289 289 289 289 289 289 289 289 289 289 288 289 289 289 288 288 288 289 289 290 290 290 290 290 290 291 291 291 292 292 292
312 311 313 314 314 314 312 310 308 307 308 310 311 310 310 310 311 312 313 313 314 314 314 315 315 312 313 313 308 302 298 296 294 292 291 291 292 292 292 292 292 292 292 292 291 292 291 291 291 290 289 289 289 288 289 289 289 289 289 288 288 289 289 289 288 288 288 289 288 288 288 288 288 288 288 289 290 290 290 289 290 290 290 291 291 291
311 309 310 311 310 309 306 305 306 306 305 306 307 307 307 307 308 308 308 308 309 310 311 311 310 309 310 309 302 296 295 294 294 293 292 291 292 292 291 291 291 292 292 292 292 292 291 291 291 290 289 289 289 288 288 288 289 289 289 288 288 288 288 288 288 288 288 288 288 288 287 287 287 287 287 288 288 289 290 290 290 289 290 290 290 290
308 307 308 307 305 305 304 304 304 303 303 302 302 303 303 303 304 304 304 305 306 306 307 307 307 308 307 301 297 294 293 294 294 294 293 292 292 292 291 291 291 291 292 292 292 292 292 291 291 290 289 289 289 288 288 288 288 288 288 288 288 288 288 288 288 288 288 288 288 287 287 287 287 286 286 287 287 288 289 290 290 290 289 289 290 290
306 306 305 304 303 303 302 302 302 301 301 301 300 301 301 301 301 301 301 302 303 304 304 304 306 307 300 294 294 294 292 293 293 293 294 293 292 292 292 291 291 291 291 292 292 292 291 291 291 290 289 289 289 288 288 288 288 288 288 288 287 287 288 287 287 287 287 288 288 287 287 286 286 286 286 286 286 287 287 288 289 290 289 289 289 289
304 304 303 302 301 301 301 301 300 299 299 299 299 299 299 298 299 299 299 300 301 302 303 303 304 303 297 293 294 293 291 292 292 292 293 293 293 293 292 291 291 291 291 292 291 291 291 291 290 290 289 288 289 288 288 288 288 288 288 287 287 287 287 287 287 287 287 287 287 287 286 286 286 286 286 285 285 286 286 287 288 288 289 289 289 288
301 301 301 300 300 300 300 299 298 298 298 297 297 298 298 297 297 297 298 301 303 303 304 304 301 298 294 294 294 293 292 293 293 292 293 293 293 293 292 291 291 291 291 291 291 291 291 290 289 289 288 288 288 288 288 288 288 288 287 287 286 286 286 287 286 286 287 287 287 286 286 286 286 285 285 285 285 285 285 286 286 287 288 288 288 288
300 299 299 299 299 299 298 297 296 296 296 295 297 301 300 299 299 299 300 303 303 301 300 300 297 294 294 295 295 294 293 294 293 293 293 292 292 292 292 292 291 291 291 291 291 291 291 289 288 288 288 288 288 288 288 288 287 287 287 287 286 286 286 286 286 286 286 286 286 286 285 285 285 285 285 285 285 285 285 285 285 286 286 287 288 287
298 297 297 299 298 297 298 297 296 295 295 296 298 299 298 300 301 300 299 299 298 297 297 297 295 295 296 296 294 293 293 292 292 292 292 292 292 292 292 292 292 291 291 291 291 291 290 288 288 288 288 287 288 288 288 287 287 287 287 286 286 285 285 285 285 285 285 286 286 285 285 285 285 285 285 285 285 285 285 285 285 285 285 286 287 287
296 296 296 297 298 296 296 297 296 295 295 296 298 296 295 297 298 297 297 297 294 294 296 296 295 295 296 295 294 293 292 292 292 292 292 292 292 292 292 292 292 292 292 291 291 291 289 289 289 288 288 287 287 287 287 287 287 286 286 286 285 285 285 285 284 284 284 285 285 284 284 284 284 284 284 285 285 285 285 285 284 284 285 285 286 286
295 295 295 295 296 295 295 295 295 295 295 297 298 296 295 296 295 295 297 297 293 292 293 293 294 296 296 296 295 293 292 292 292 292 291 292 292 291 291 291 291 291 291 290 290 290 290 290 290 289 288 287 287 287 287 286 286 286 286 285 285 284 284 284 283 283 284 284 284 284 283 283 283 284 284 284 284 284 284 284 284 284 284 284 285 285
295 295 295 294 295 295 295 295 295 295 296 297 297 295 294 294 295 294 296 297 293 290 291 292 295 296 295 295 294 292 291 291 291 290 290 292 293 292 291 291 289 288 289 289 289 290 290 290 290 289 288 286 286 286 286 286 286 285 285 285 284 284 283 283 283 282 283 283 283 283 282 281 282 282 283 284 284 284 284 284 284 284 284 284 284 284
294 295 296 295 296 297 297 297 297 297 297 297 296 295 294 294 295 294 295 294 291 289 289 291 293 294 294 294 293 292 291 291 290 289 290 291 293 292 292 291 288 287 288 289 289 289 290 290 290 288 286 285 286 286 286 285 285 285 284 284 283 283 282 282 282 282 282 282 282 282 281 280 280 280 281 283 283 283 283 283 283 283 283 283 283 284
293 295 296 296 296 296 296 297 296 296 297 297 296 295 295 295 294 294 294 293 290 289 291 292 293 293 293 293 292 292 292 292 290 290 289 290 290 289 289 289 288 287 287 289 289 289 289 289 287 286 285 285 285 285 284 284 284 284 284 283 282 282 281 281 281 281 281 281 281 280 279 278 278 279 280 281 281 281 281 282 282 283 283 283 283 283
292 293 293 294 296 296 296 296 295 296 297 298 297 296 294 293 292 292 293 293 290 290 291 292 292 293 292 292 292 292 292 292 290 290 290 289 288 287 287 286 286 286 287 288 289 288 287 286 284 284 284 284 284 284 283 283 283 283 282 282 281 281 281 280 280 280 280 280 279 278 278 277 277 277 278 279 279 279 280 281 281 282 282 282 282 282
291 291 291 291 293 293 294 294 293 293 295 296 295 293 290 291 293 295 294 291 289 289 290 290 290 291 291 291 291 291 290 290 289 289 289 289 289 288 287 286 286 287 287 287 286 285 284 283 282 282 282 282 282 282 282 282 282 281 281 280 280 280 280 279 279 279 279 278 277 277 276 275 275 276 276 276 276 277 278 279 279 280 281 281 282 282
291 292 293 293 292 290 291 292 292 292 293 293 292 290 290 293 296 296 292 289 289 290 289 289 289 289 289 290 290 289 289 288 288 288 288 288 288 288 287 286 285 284 284 283 283 282 282 281 281 281 281 281 281 281 280 280 280 279 279 279 279 279 278 278 278 277 277 276 275 275 274 274 274 274 274 274 274 275 276 276 277 278 280 281 281 281
291 292 293 293 292 291 291 292 293 294 293 292 291 291 293 294 293 291 290 289 289 289 289 288 288 288 288 288 287 287 287 286 286 287 287 287 286 285 284 283 282 281 281 281 281 280 280 280 279 279 279 279 279 279 279 278 278 278 277 277 277 277 277 277 276 275 275 274 273 273 273 272 272 272 272 272 273 273 274 274 275 277 279 280 280 281
292 292 292 291 291 292 292 292 293 293 293 292 291 291 291 291 290 289 289 289 289 288 288 287 287 287 286 285 285 285 285 285 285 284 284 283 282 281 281 280 280 279 279 279 279 279 279 278 278 278 278 277 277 277 277 276 276 276 276 276 276 276 275 275 274 273 273 272 272 271 271 271 271 271 271 271 271 272 273 274 275 276 277 279 280 280
291 291 290 290 290 290 290 290 290 290 290 290 290 289 289 289 289 289 289 288 288 288 287 285 285 284 284 283 284 284 283 282 281 280 280 279 279 279 279 279 278 278 278 278 278 277 277 276 276 276 275 275 275 275 275 275 275 274 275 275 274 274 273 273 272 271 271 270 270 270 269 269 269 269 269 270 270 271 272 273 274 275 276 278 279 280
289 289 289 289 289 289 289 289 289 289 289 289 289 289 289 289 288 288 288 287 286 284 283 281 281 281 281 280 281 280 279 279 278 277 278 278 277 277 277 277 277 277 276 276 276 275 275 274 274 273 273 273 273 273 273 273 273 273 273 273 272 272 271 270 270 269 269 268 268 268 268 268 268 268 268 269 269 270 271 272 273 274 276 277 278 279
289 289 289 289 289 288 288 288 288 289 289 289 289 289 288 289 288 287 284 282 281 279 278 278 278 279 278 278 278 277 276 276 276 276 276 276 276 276 276 275 275 275 274 274 273 273 272 272 272 272 271 271 272 271 271 271 271 271 271 270 270 269 268 268 267 267 267 267 267 266 266 266 267 267 267 267 268 269 270 271 272 273 275 276 277 278
289 289 290 290 289 288 289 289 288 289 289 288 289 288 287 285 284 283 280 278 278 277 276 276 276 276 276 276 276 275 275 275 275 274 274 274 274 274 274 273 273 272 272 271 271 271 270 270 270 270 269 269 269 269 269 268 268 268 268 267 267 266 266 265 265 265 265 265 265 265 265 265 265 266 266 267 267 268 269 270 271 272 273 274 276 277
289 289 289 289 289 289 288 288 288 288 288 288 288 286 282 279 279 280 279 277 276 275 275 274 274 274 274 274 274 274 273 273 273 273 272 272 272 272 271 271 270 270 270 269 268 268 267 267 267 266 266 266 265 265 265 265 264 264 264 264 264 263 263 263 263 263 263 264 264 264 264 264 265 265 265 266 267 267 268 269 270 271 272 273 274 275
289 289 288 289 289 289 288 288 289 288 288 288 285 280 276 275 276 278 277 275 274 274 273 272 272 272 272 272 272 272 271 271 271 271 270 270 270 270 269 269 268 268 267 266 265 265 264 264 263 263 263 263 262 262 262 262 262 262 261 261 261 262 262 262 262 262 262 263 263 263 263 263 264 264 264 265 265 266 266 266 267 268 269 270 272 273
Wind_Speed
3 3 3 6 9 12 12 12 13 11 4 1 2 4 6 7 8 8 9 8 1 4 9 10 18 18 13 13 13 15 12 11 16 19 18 17 13 12 13 16 15 13 11 9 11 13 13 16 17 18 20 21 22 24 27 29 32 35 36 37 38 40 40 40 41 41 41 42 41 40 43 46 46 45 46 47 49 51 51 51 50 50 49 48 48 48
2 5 8 12 13 10 8 7 7 6 5 4 5 6 6 5 10 10 8 8 1 2 6 6 16 20 13 12 12 14 15 15 17 17 19 19 15 13 15 18 15 9 6 6 7 10 12 13 14 15 17 19 21 23 25 28 31 33 35 37 38 38 39 42 44 44 45 46 46 45 47 47 45 45 47 49 51 51 50 50 50 50 50 50 50 50
2 6 11 15 9 1 2 3 3 5 6 7 4 5 6 4 8 9 5 6 1 2 6 6 14 17 13 15 16 18 19 16 13 13 17 19 15 16 17 15 10 8 8 7 7 8 11 13 13 13 15 18 21 23 23 26 28 30 33 35 36 36 39 42 44 44 45 46 46 44 42 42 40 40 44 45 45 46 46 47 48 49 50 50 51 50
4 6 12 14 6 3 3 4 6 1 4 6 5 4 6 3 4 6 4 5 3 3 6 9 14 15 12 14 16 16 14 11 11 13 15 15 16 19 17 10 8 8 10 10 8 7 10 13 13 13 14 17 18 20 22 23 26 28 32 34 35 36 38 40 42 43 43 40 39 38 35 33 33 34 36 37 38 40 42 43 45 47 49 50 50 50
7 5 5 5 6 8 7 1 4 3 6 6 6 5 8 8 8 9 5 6 6 4 3 6 12 11 5 6 8 6 4 7 11 11 12 16 18 15 12 8 5 5 7 8 7 8 9 10 12 14 15 15 16 17 19 21 23 26 29 32 34 35 36 38 39 40 38 35 33 32 28 25 26 27 28 33 37 37 39 42 45 46 47 48 49 50
8 4 3 4 5 7 7 5 5 7 8 6 5 10 13 13 11 11 8 7 5 4 3 5 7 7 1 2 5 4 3 6 6 7 14 18 13 7 8 6 5 6 4 2 5 7 7 8 13 17 17 15 14 14 15 17 20 23 25 27 29 31 33 34 35 36 35 34 32 32 30 26 27 28 31 38 41 39 41 44 44 45 46 47 48 49
4 4 2 5 5 6 6 5 7 9 6 7 5 10 13 11 9 10 7 4 1 4 3 3 1 8 3 2 6 4 4 9 7 10 16 12 6 6 6 5 8 6 3 3 5 5 5 7 9 14 16 16 14 14 14 14 15 18 21 23 25 28 30 31 31 33 34 34 33 33 34 31 31 32 35 38 36 37 42 43 42 45 47 48 48 49
4 2 2 5 5 6 5 5 7 10 5 5 5 6 7 8 8 6 3 3 4 3 4 0 3 7 8 3 4 2 3 9 12 13 11 6 7 9 7 6 7 4 1 4 5 5 5 6 7 11 15 17 17 18 17 14 12 13 15 18 21 24 27 28 29 31 33 35 34 34 34 32 33 33 29 27 28 32 36 38 40 42 44 46 47 48
3 3 4 6 5 4 6 5 7 12 6 6 3 5 5 5 5 4 4 4 2 3 4 2 4 3 9 5 1 2 3 8 13 11 7 6 6 9 6 7 6 1 3 5 4 5 5 6 8 11 15 19 21 21 20 17 13 10 11 14 18 21 24 26 28 29 33 34 33 33 34 33 33 32 27 24 27 30 32 35 37 38 41 44 45 46
1 3 6 8 5 5 7 4 8 12 7 4 5 5 4 4 3 3 3 3 2 3 4 4 5 3 9 5 4 2 3 6 8 7 5 5 7 8 2 6 5 1 3 3 4 4 5 8 10 13 19 22 22 20 20 18 15 12 10 10 14 19 22 25 27 29 32 35 34 34 35 35 33 31 28 26 26 29 31 34 36 37 39 40 42 45
1 1 2 5 4 6 5 3 3 7 5 3 5 4 5 4 4 3 1 3 1 6 5 9 10 5 6 5 3 3 4 5 4 3 4 4 6 7 3 6 4 3 5 5 5 6 7 11 17 23 25 26 25 23 21 20 17 15 13 10 11 15 19 23 25 28 31 34 36 37 36 36 34 30 28 28 27 28 31 33 36 37 38 39 42 43
1 1 2 3 2 4 6 4 3 2 3 3 3 3 3 3 4 4 4 3 1 6 4 8 10 8 7 5 2 4 5 5 4 2 4 5 7 7 4 8 4 4 5 6 7 8 8 12 18 24 25 26 27 27 26 24 20 18 15 13 12 13 16 20 23 26 30 32 36 38 36 35 34 31 30 31 30 30 32 33 34 34 36 37 39 40
2 4 4 3 1 4 5 3 3 3 4 4 3 2 2 4 3 2 2 1 3 6 4 3 3 5 8 5 3 8 9 8 8 6 6 6 9 8 4 8 3 4 4 6 7 8 10 10 11 16 21 23 25 28 28 27 24 20 17 14 13 14 15 18 21 24 27 30 33 34 34 34 34 32 32 32 31 31 32 32 32 32 34 35 37 39
4 4 1 0 2 3 7 5 2 1 3 5 4 4 3 1 2 3 3 2 4 5 4 1 2 4 6 3 7 14 13 7 4 6 7 5 7 8 4 5 2 4 5 7 8 9 10 9 11 16 20 20 22 27 29 28 26 23 20 17 15 16 15 15 18 21 24 28 30 31 32 33 32 31 32 31 30 30 31 31 31 32 34 36 38 42
3 6 2 4 2 4 9 8 4 4 5 6 5 5 4 4 4 4 4 4 6 4 3 1 3 3 2 3 7 10 7 6 3 4 5 4 5 3 5 5 5 7 8 9 10 11 11 12 15 18 19 21 24 29 30 30 29 26 24 21 18 18 15 13 15 18 21 25 27 28 30 30 29 29 30 30 30 29 30 30 30 31 33 36 38 40
2 7 5 2 1 6 7 4 3 6 1 3 3 3 3 4 5 4 4 4 2 2 3 2 4 4 4 6 9 5 4 6 6 7 5 5 5 7 8 8 9 10 10 9 10 11 11 13 15 16 19 24 29 31 31 31 30 28 26 24 22 20 18 14 12 14 18 21 23 25 26 27 28 28 28 29 30 30 30 30 30 32 33 35 36 37
2 6 3 2 2 5 5 2 3 3 2 1 3 2 3 2 5 3 5 1 2 4 6 3 5 7 4 7 6 1 3 5 7 8 6 6 7 10 9 9 10 10 10 9 9 9 10 12 16 19 22 25 27 29 31 33 32 29 27 27 26 25 23 19 15 13 15 18 20 22 23 24 25 26 28 28 29 29 28 28 29 31 33 35 36 36
4 7 5 4 4 6 3 2 1 0 3 5 3 4 1 1 3 2 2 1 0 7 5 3 9 10 6 5 3 6 7 7 8 9 9 10 10 10 9 10 10 10 9 10 10 10 10 13 18 21 22 23 24 25 28 31 33 35 35 33 31 30 28 25 21 18 16 16 18 20 21 23 25 26 28 29 28 27 27 28 29 30 33 35 36 37
4 6 6 4 5 3 2 2 0 2 2 4 3 1 2 2 2 1 2 2 4 6 3 4 9 8 5 6 5 5 3 5 8 9 11 12 12 10 10 11 11 10 9 9 10 9 9 12 16 19 20 23 25 26 27 29 33 36 37 37 36 34 33 32 29 24 20 18 17 19 20 23 25 27 29 30 30 29 29 30 30 31 33 35 36 37
2 4 6 1 3 0 2 1 3 3 2 1 1 1 1 2 2 1 2 1 2 5 4 4 5 5 6 4 0 1 2 5 6 8 11 11 11 10 9 9 9 8 8 8 8 7 7 10 14 16 18 20 23 26 28 30 32 33 33 35 37 37 38 38 35 31 27 22 19 19 20 21 25 27 29 30 31 31 32 33 32 33 34 35 36 37
2 4 6 2 1 0 0 3 6 6 4 3 2 2 1 1 0 1 2 1 2 4 4 4 5 6 5 1 6 5 8 9 7 9 10 9 10 9 9 9 7 7 7 6 6 6 6 8 12 16 17 19 22 25 27 28 29 31 33 36 37 38 40 40 38 35 31 27 23 22 21 21 23 25 28 29 29 31 32 33 34 34 35 35 36 37
1 3 4 3 3 3 5 5 6 6 4 3 4 4 4 4 3 4 5 3 3 3 4 5 7 6 5 3 3 8 11 10 9 10 9 8 9 8 8 8 7 7 8 7 6 6 6 8 12 15 18 21 23 26 28 29 31 35 37 38 38 38 38 37 36 34 33 31 28 26 24 23 22 23 25 26 28 29 31 32 34 35 35 35 36 37
2 1 1 4 6 7 8 3 2 2 1 1 3 4 5 6 6 7 8 3 3 4 4 6 7 5 5 5 7 10 9 8 9 10 8 7 7 7 7 7 7 8 8 8 8 7 8 12 16 20 25 28 29 31 33 34 35 36 35 35 35 35 34 33 33 32 31 31 30 28 27 25 23 22 22 23 25 28 30 32 33 34 35 36 36 36
2 2 1 4 4 6 8 2 5 3 2 1 4 4 5 5 5 7 5 2 3 5 5 7 6 2 2 2 9 10 8 9 9 9 9 7 6 7 7 7 7 7 8 9 9 8 11 15 19 21 23 26 27 29 30 31 31 31 31 31 31 31 31 31 32 31 30 29 29 30 30 29 27 24 23 23 24 26 28 30 32 33 35 36 36 36
1 1 2 1 3 4 6 3 3 4 2 1 3 3 2 3 5 5 2 2 4 6 8 9 5 2 2 2 8 9 9 9 7 7 7 6 6 7 7 7 7 7 9 10 10 10 11 13 14 15 18 19 21 23 25 26 28 28 29 30 30 29 30 30 31 30 30 30 30 31 32 31 30 28 26 24 24 25 26 28 30 31 33 34 35 35
1 2 1 2 5 6 7 6 1 1 1 2 2 4 4 3 6 7 4 4 5 6 8 9 6 5 5 3 7 6 7 9 6 5 5 4 4 5 5 7 7 7 9 10 10 9 9 9 10 12 16 18 19 21 22 24 25 26 27 28 29 29 30 30 31 30 30 30 31 32 33 33 33 32 30 28 26 25 25 25 26 28 29 31 33 35
0 2 2 4 8 7 7 5 1 2 1 3 3 5 6 4 5 5 4 5 5 5 7 9 9 10 9 6 7 7 5 5 5 4 4 3 2 2 3 4 5 6 7 7 8 8 8 8 9 11 15 17 18 20 20 21 22 23 24 26 28 29 29 30 31 31 30 29 30 31 33 33 33 33 33 32 30 27 25 24 24 25 26 28 30 33
1 3 4 6 8 5 4 4 3 2 2 2 4 6 7 8 7 7 9 7 7 8 7 5 7 11 11 8 4 4 5 5 4 3 2 1 1 1 2 2 3 4 5 6 7 7 8 9 8 10 13 15 16 17 18 18 20 21 22 24 26 27 28 28 29 29 28 27 28 29 30 31 31 32 33 33 33 32 30 27 25 24 24 25 27 29
2 3 4 5 6 4 5 7 6 5 4 4 5 7 9 11 11 12 13 12 9 9 9 9 13 17 14 7 1 1 2 3 2 1 1 2 2 2 3 2 2 3 3 4 5 5 6 7 7 9 13 16 16 17 17 18 19 20 20 22 25 26 26 26 26 26 26 25 25 26 27 28 29 30 32 32 34 34 34 32 30 27 25 24 25 27
2 2 1 1 3 5 7 9 8 7 9 9 9 9 10 14 16 16 16 15 15 16 16 16 20 19 9 1 3 1 1 3 3 3 2 3 3 3 3 2 2 3 3 3 4 4 4 5 5 7 11 14 16 18 19 19 20 20 20 21 24 25 25 25 25 26 25 24 24 26 26 27 28 29 31 32 33 34 35 35 34 32 29 26 25 26
2 3 3 3 5 8 9 10 11 9 9 10 11 12 14 17 18 17 16 16 16 17 16 16 18 12 1 3 2 1 1 3 3 4 4 4 4 4 4 3 3 4 4 4 4 4 4 5 5 6 8 11 14 15 17 18 19 19 19 21 23 24 24 23 24 24 24 24 24 26 27 27 29 30 31 32 33 34 35 35 35 34 32 29 27 26
2 2 4 5 5 7 9 12 12 9 9 10 12 15 19 19 16 15 14 12 11 11 11 11 10 4 2 2 2 2 2 3 4 4 5 5 5 5 5 5 5 5 5 4 4 4 5 5 5 6 8 12 13 14 15 16 16 17 18 20 22 23 22 21 21 22 23 22 23 25 26 27 29 30 31 32 33 34 34 34 34 34 33 32 30 28
2 2 3 4 6 9 10 9 5 5 8 11 11 13 16 16 13 12 10 8 7 5 6 7 4 1 2 2 2 2 3 3 4 5 5 5 5 5 6 7 6 6 6 5 5 5 5 6 7 9 11 13 14 15 16 16 15 15 16 18 21 22 22 21 21 21 22 21 21 23 25 26 28 29 30 31 31 32 33 33 34 34 33 32 31 29
4 6 5 4 5 9 8 3 4 4 10 10 4 3 6 8 9 9 7 5 4 2 1 0 2 4 3 4 3 4 4 3 5 5 6 6 6 6 7 8 7 7 7 6 6 6 6 7 10 12 14 15 16 16 17 17 16 16 17 18 20 21 21 21 21 21 21 20 21 22 24 25 26 27 29 30 30 31 31 31 31 33 33 32 31 30
6 7 4 2 4 5 2 4 4 8 8 5 3 1 1 2 2 2 4 4 3 2 4 4 3 5 4 4 5 6 6 6 6 6 8 8 6 7 8 8 7 8 8 7 7 7 7 9 12 13 14 16 17 17 18 19 18 19 20 20 21 22 21 21 21 21 20 19 19 21 23 25 26 27 28 29 29 30 30 29 29 31 32 32 31 30
6 4 2 2 3 1 1 2 7 6 4 7 5 1 2 2 3 2 3 4 4 4 5 4 4 5 5 5 6 7 6 5 4 6 9 10 9 8 9 9 8 7 7 8 9 9 12 14 14 15 17 19 20 20 21 21 21 20 21 22 22 23 22 22 22 22 21 20 20 21 22 24 25 26 27 28 28 28 29 29 29 30 30 29 30 31
7 5 3 3 3 2 2 5 6 5 9 10 7 2 2 1 3 2 1 4 5 6 5 4 5 6 6 7 7 7 3 1 2 6 9 10 11 11 11 11 10 8 9 11 14 16 19 21 20 20 22 23 24 24 24 24 22 21 22 23 23 23 23 22 22 23 22 21 21 22 24 24 25 26 27 27 26 27 28 28 29 30 29 28 29 29
8 6 5 4 4 3 3 4 4 5 6 4 4 4 3 2 3 4 2 2 4 6 5 5 5 7 7 7 8 5 1 1 4 7 7 8 9 10 10 11 12 13 14 15 17 19 22 24 23 22 23 24 25 27 26 24 23 22 22 24 23 23 23 23 23 23 23 23 24 25 26 26 26 27 28 27 27 27 28 28 29 29 29 28 29 29
6 6 5 4 4 3 4 4 5 6 4 2 4 5 4 3 3 4 3 4 2 5 6 7 7 8 7 7 7 3 2 3 6 6 7 8 8 9 10 11 12 15 18 18 17 18 22 24 23 22 23 23 25 28 27 25 25 23 23 24 24 23 23 23 23 24 24 25 26 26 27 28 28 29 29 29 28 29 30 30 30 30 29 28 28 29
2 2 4 5 5 6 7 5 4 4 3 3 5 5 4 3 3 4 5 5 3 5 6 7 8 9 7 6 5 3 4 5 6 6 8 8 7 8 10 12 13 15 17 18 18 19 20 20 18 19 22 24 26 28 28 27 26 25 25 26 25 24 25 24 25 25 25 26 27 28 29 29 30 30 30 30 31 32 32 32 32 31 30 29 29 29
1 1 1 3 6 9 9 6 4 4 4 5 6 6 4 2 3 2 6 4 5 7 6 6 7 8 6 6 4 4 6 7 7 8 10 9 9 9 12 16 17 17 17 18 19 18 17 15 16 19 23 27 28 29 29 28 25 25 27 26 26 28 28 26 26 27 26 27 28 29 30 31 31 31 31 32 32 33 33 33 33 32 32 31 30 29
1 0 2 1 3 4 5 4 4 5 4 4 4 3 3 2 1 5 5 3 4 6 5 4 6 7 6 6 6 6 7 7 8 9 10 10 12 12 13 14 14 15 16 17 18 17 16 16 19 22 25 29 30 29 28 26 24 26 28 26 28 31 29 27 28 27 27 29 30 31 32 32 32 31 32 33 33 32 34 35 34 34 34 32 30 29
3 2 2 3 2 1 2 3 4 5 3 3 3 0 1 4 4 4 3 4 7 8 7 6 6 5 6 7 7 7 7 8 9 10 10 11 11 10 10 10 9 10 14 16 18 20 19 19 21 24 28 31 31 30 28 24 24 27 27 28 31 31 28 27 28 28 29 32 32 33 33 33 32 32 32 34 34 33 35 38 37 35 34 32 30 29
3 3 3 4 3 2 3 5 5 4 2 2 3 2 4 4 4 4 7 8 8 7 6 5 5 6 6 5 6 7 8 9 10 10 9 9 9 8 8 9 10 12 15 17 20 22 21 20 23 26 30 32 33 32 29 25 25 27 29 32 33 30 27 28 28 29 31 33 33 34 35 33 34 34 34 34 34 33 35 37 36 34 33 31 29 27
4 5 4 4 2 3 5 6 5 3 2 3 4 5 7 8 8 7 6 6 6 6 5 4 6 6 4 3 4 6 7 8 8 8 7 8 8 9 10 11 12 15 17 20 23 24 22 21 23 26 30 34 35 33 31 28 27 28 31 34 32 28 28 29 29 30 33 34 35 36 36 36 37 38 36 35 34 32 33 34 33 32 32 30 28 26
5 4 2 1 4 4 5 9 9 6 7 9 8 8 8 9 8 7 6 5 5 5 3 3 3 4 4 3 2 3 5 6 7 8 8 8 9 11 11 13 16 18 20 21 23 24 24 24 25 26 28 34 37 35 32 30 29 29 32 32 30 29 29 30 31 32 34 35 36 37 37 38 39 39 38 36 34 32 33 33 31 31 31 29 27 26
5 4 3 3 7 6 7 10 10 8 10 10 9 9 9 9 8 6 4 3 3 2 3 3 3 3 4 3 3 3 6 6 6 7 8 8 10 11 10 11 15 19 21 22 23 24 25 25 25 25 27 32 37 37 34 33 33 32 32 32 30 30 30 31 32 33 34 35 37 37 37 37 37 37 37 36 34 33 32 32 31 30 29 28 27 26
2 2 3 6 9 8 10 12 10 8 8 8 8 8 8 8 7 3 3 2 3 4 3 3 3 2 3 3 3 4 7 7 5 7 9 9 10 10 10 11 16 20 23 25 25 26 26 25 26 27 28 32 36 38 37 37 37 36 34 33 31 30 31 33 34 34 36 37 37 37 37 36 35 36 36 35 33 32 31 31 30 30 30 30 29 26
2 2 3 4 7 8 10 13 11 8 8 9 10 7 4 3 2 3 4 3 4 4 4 3 3 2 3 4 3 4 7 8 6 6 9 10 10 10 11 14 19 22 24 26 27 27 27 27 28 30 32 35 38 40 40 40 40 39 37 36 35 33 35 37 37 37 38 39 37 37 37 35 34 34 33 33 32 32 32 33 31 31 33 35 34 32
4 7 6 3 5 8 10 11 8 5 7 8 6 2 2 2 2 3 3 4 5 5 5 5 5 3 2 3 4 4 6 8 7 7 9 10 10 11 14 18 21 22 24 25 27 29 30 30 31 33 35 38 40 40 41 42 43 42 40 40 39 39 40 41 40 38 39 37 35 35 34 33 33 33 32 31 31 32 34 35 35 34 36 38 39 38
6 10 8 5 7 10 12 11 7 4 7 6 1 3 2 2 3 3 3 3 3 3 4 5 6 6 4 3 4 5 6 7 8 10 10 11 12 15 17 19 20 21 24 27 28 29 31 33 33 33 35 38 40 40 42 44 44 44 43 42 41 40 40 40 38 36 36 34 32 33 32 30 31 32 31 31 31 31 32 34 37 39 39 40 42 43
Wind_Direction
132 152 171 200 214 216 217 209 218 241 279 278 235 254 259 268 267 251 260 265 178 281 269 256 270 275 270 267 269 275 275 268 270 274 274 274 277 276 273 270 269 267 270 288 299 300 299 291 283 275 270 263 256 250 244 239 235 233 229 225 224 224 221 217 215 213 211 210 210 212 215 218 220 220 221 222 223 224 224 224 222 222 220 219 219 219
119 185 211 221 219 215 223 222 229 260 298 273 250 271 265 249 268 265 265 273 206 249 262 248 273 277 273 270 266 268 269 259 256 263 272 276 278 277 272 270 275 283 291 310 335 347 338 315 297 283 270 259 253 250 244 239 238 235 229 226 225 222 218 217 216 213 211 211 211 212 215 217 218 218 219 221 222 223 223 223 221 221 220 219 220 220
195 218 229 232 222 161 20 72 143 220 245 251 247 278 276 252 277 277 262 286 334 225 275 286 279 277 273 263 253 250 253 256 258 256 263 271 274 272 268 273 291 308 309 332 16 8 337 318 307 293 277 264 258 256 250 245 242 236 230 228 225 222 219 218 216 214 214 214 214 214 216 216 215 219 220 221 223 222 222 221 221 220 219 219 219 219
212 239 236 234 215 196 281 64 98 213 250 231 221 255 272 262 277 275 271 322 335 238 277 296 287 282 270 255 249 248 252 262 266 254 255 264 261 259 266 284 303 306 318 343 2 339 314 312 311 303 292 283 271 264 258 251 244 237 233 230 226 224 222 219 217 216 216 215 214 214 216 217 216 219 222 221 224 224 222 221 221 220 219 219 219 219
229 241 227 213 185 199 235 163 119 255 265 228 206 222 258 259 250 255 283 339 321 279 304 314 297 288 257 244 262 277 279 259 256 260 263 259 253 258 278 293 312 331 348 354 333 310 306 313 320 321 315 302 286 278 274 266 254 246 241 236 231 227 224 221 219 217 215 213 212 209 212 215 214 217 219 218 221 221 221 221 221 220 220 219 219 219
250 238 131 130 170 184 204 226 200 215 252 263 213 211 237 253 256 262 292 346 341 307 344 3 320 299 56 103 274 301 314 264 251 255 251 250 258 283 291 304 27 32 20 342 287 292 307 322 330 334 331 316 300 302 302 288 272 259 250 244 236 231 227 224 221 216 213 211 208 204 203 203 202 207 212 215 216 216 218 220 221 221 220 220 220 220
248 242 164 146 153 143 165 236 223 197 239 288 238 210 225 243 255 264 285 331 291 258 302 43 343 286 301 143 245 263 272 273 263 242 246 256 308 320 297 349 36 35 18 303 280 296 311 322 331 329 331 328 324 330 326 310 293 275 260 251 242 236 231 227 222 217 212 210 209 207 207 207 206 210 216 219 218 217 218 219 220 221 220 220 220 220
200 220 86 120 123 126 162 237 217 174 187 269 238 192 199 221 237 236 230 228 238 281 307 100 154 276 286 239 249 250 217 264 263 252 265 315 334 306 313 37 56 47 14 268 294 337 323 324 331 322 332 343 347 348 343 335 321 298 276 259 248 241 235 229 224 218 213 211 211 211 213 216 218 220 224 225 222 221 220 218 219 220 219 219 219 219
147 173 172 144 121 152 196 218 179 158 181 249 205 144 159 193 211 174 169 209 254 343 305 246 149 253 280 264 15 29 205 250 259 260 292 324 303 292 321 60 78 64 244 253 314 351 326 322 326 327 343 357 1 358 353 350 342 325 299 272 254 244 236 230 225 220 216 214 214 214 216 219 223 225 229 231 227 224 221 219 219 219 219 219 218 218
94 210 185 149 143 201 211 207 170 165 193 222 137 101 80 81 80 99 139 146 69 308 257 209 174 233 282 274 96 63 256 251 262 271 286 288 277 275 315 79 92 300 289 296 331 340 329 331 341 355 4 9 11 6 0 357 352 344 324 289 263 248 239 232 226 221 218 215 215 217 219 221 224 225 226 229 228 223 220 219 218 218 218 218 217 217
301 309 172 160 183 195 170 117 155 166 165 139 113 65 36 39 44 52 52 90 57 284 230 188 189 194 281 286 140 177 234 224 245 291 307 316 301 291 1 78 83 10 354 352 0 349 345 356 6 12 12 11 14 13 9 5 357 349 336 312 281 258 244 235 229 224 221 217 216 219 220 222 224 224 224 225 225 221 218 217 217 217 217 218 218 218
3 112 233 236 195 131 116 78 20 61 108 105 87 56 8 339 16 25 357 48 180 266 236 192 192 191 235 263 234 243 247 224 223 273 313 326 308 297 41 76 57 10 351 353 7 353 351 6 10 12 9 6 10 14 12 8 1 353 341 324 302 279 256 241 234 228 225 222 220 221 221 223 225 225 224 224 224 221 218 218 217 217 216 217 218 217
268 217 241 276 200 142 130 103 11 26 72 84 91 92 327 318 348 344 321 70 220 260 265 206 189 221 242 250 253 263 266 245 217 215 251 283 289 293 39 75 30 332 340 4 13 360 358 2 3 8 4 0 6 12 13 11 5 355 345 332 312 297 276 254 243 235 230 227 226 225 224 225 225 225 226 227 226 225 223 221 218 216 215 215 216 217
298 286 285 179 267 183 153 163 220 205 145 148 154 156 170 221 283 272 253 265 267 275 295 252 197 262 281 276 231 244 264 267 215 220 250 266 275 293 11 61 356 334 4 15 19 16 9 0 0 3 357 358 9 15 17 16 11 3 354 343 325 313 297 270 254 245 238 235 232 230 230 230 229 227 228 230 230 229 228 225 222 220 219 218 219 220
280 301 231 182 248 179 176 197 180 129 156 182 162 142 166 185 215 244 237 258 270 285 314 273 202 220 257 277 235 233 275 318 324 285 277 265 266 313 29 35 19 22 25 19 20 24 21 14 9 1 356 4 16 20 21 20 18 15 7 357 345 333 320 297 274 259 250 245 240 237 236 235 235 234 233 233 234 234 233 230 227 225 225 225 225 225
249 275 248 243 297 162 183 232 124 104 174 214 125 119 209 194 193 246 251 230 240 293 284 224 230 232 209 265 272 259 308 331 324 308 297 295 332 33 45 34 26 26 27 23 25 28 26 23 16 8 10 16 20 21 23 23 22 22 19 14 7 356 344 330 307 283 267 259 252 248 244 242 242 241 239 238 237 237 236 235 232 230 230 231 231 230
236 268 249 30 324 193 194 247 134 140 210 162 117 186 239 165 154 237 269 270 88 258 254 215 249 276 287 285 283 74 40 352 340 341 345 346 20 46 47 39 31 25 27 25 27 29 25 22 18 18 20 21 22 22 23 24 25 26 26 25 22 17 9 356 340 319 296 278 268 261 255 252 250 248 247 244 243 241 240 240 238 236 235 234 234 233
208 260 240 171 234 236 189 142 114 156 150 137 182 229 265 108 139 168 252 351 238 249 261 252 256 275 296 288 320 34 29 10 356 4 20 23 36 44 39 42 39 32 28 21 23 23 19 20 18 18 21 23 25 26 26 27 27 28 28 26 25 24 20 13 2 347 326 304 287 276 267 261 258 255 253 250 249 247 245 244 243 241 239 237 236 236
194 255 265 184 205 239 107 118 311 293 184 149 193 219 84 208 219 146 189 213 239 245 253 251 257 264 246 247 295 326 2 38 13 16 32 31 34 34 30 36 34 30 27 21 21 18 15 19 17 18 21 23 26 27 28 28 28 29 28 26 24 23 23 24 19 8 351 331 308 292 281 273 267 262 258 254 251 249 247 246 245 244 243 241 240 238
160 241 275 187 171 159 64 153 195 237 261 99 130 329 75 180 200 153 183 190 248 253 252 247 254 257 247 243 167 194 102 65 26 34 46 35 33 33 28 29 24 25 29 22 21 17 15 19 20 24 26 26 28 28 27 28 28 28 27 25 24 21 21 23 22 17 8 354 334 314 300 289 280 271 265 259 255 251 248 248 247 246 246 244 242 240
121 232 251 234 231 357 146 201 186 185 185 136 161 226 213 172 70 275 231 176 209 247 253 250 248 251 262 153 119 98 46 34 33 63 67 42 33 30 23 23 17 21 28 25 25 21 19 23 25 29 31 31 32 29 28 27 26 26 25 24 22 20 19 19 18 17 14 8 357 340 325 312 298 284 274 267 262 258 255 253 251 250 250 247 244 242
181 230 239 238 245 241 236 220 192 191 187 177 199 203 210 224 253 272 252 191 186 227 227 246 256 249 262 292 78 68 52 42 39 58 68 48 37 30 22 20 14 16 20 19 22 20 20 25 24 26 28 28 29 26 25 24 22 23 22 20 19 18 17 14 13 15 15 15 11 1 349 335 320 303 288 276 270 266 263 260 258 255 253 251 248 246
153 125 261 249 240 250 260 249 135 207 197 221 242 214 213 219 213 239 251 225 208 223 214 246 259 242 257 304 35 58 60 57 48 50 56 47 38 32 24 18 15 17 15 10 13 16 15 17 17 19 21 21 20 19 19 19 19 19 18 17 16 15 13 11 10 12 14 16 17 15 8 358 344 328 310 294 284 277 272 269 265 261 257 254 252 249
121 134 219 241 251 277 280 316 50 34 87 136 254 218 205 218 217 230 247 276 256 231 226 249 251 234 281 22 79 81 66 56 52 48 45 37 29 26 21 18 15 12 11 11 12 12 12 14 17 19 19 18 17 16 15 16 16 15 15 14 13 11 9 8 8 9 11 13 15 17 16 11 4 351 334 319 305 295 287 280 273 267 262 258 254 251
357 190 160 234 283 294 289 293 11 17 49 205 255 245 237 272 284 281 282 295 260 223 229 250 249 211 242 71 84 92 88 75 60 52 53 42 24 16 12 13 11 8 11 11 10 10 10 13 15 16 16 15 14 13 13 12 12 11 11 10 9 8 6 6 6 7 8 10 11 13 13 12 10 4 353 339 324 312 302 291 282 273 267 261 257 253
302 289 185 272 269 262 272 274 276 49 293 266 301 319 321 294 279 286 277 254 246 215 221 249 267 260 253 7 30 44 85 91 83 69 66 60 34 16 8 7 4 6 8 5 5 7 5 8 9 9 10 10 10 10 9 9 8 7 6 6 6 5 3 3 3 4 6 8 9 9 9 9 8 5 1 354 343 330 317 305 293 283 274 266 261 257
254 283 237 245 259 260 274 288 7 61 267 269 312 325 324 311 286 283 264 248 271 273 250 251 268 276 279 311 345 352 17 60 82 74 53 52 43 15 8 3 358 359 358 356 358 359 357 360 1 2 3 3 4 5 5 5 4 2 2 2 2 2 2 1 1 2 3 5 6 7 6 6 5 3 2 0 356 349 338 325 310 297 286 276 267 260
146 266 246 249 262 270 297 307 328 352 282 271 305 306 305 303 292 277 265 273 307 303 276 276 292 291 290 294 317 352 352 3 38 53 41 12 331 312 306 327 348 348 344 348 350 350 352 350 347 350 353 354 355 357 359 360 359 359 358 357 357 358 359 359 359 359 359 360 2 3 2 2 2 2 1 1 360 358 353 345 333 318 305 291 277 267
149 259 257 266 286 313 321 306 302 305 293 281 278 277 284 285 277 270 269 277 289 278 273 292 291 284 285 281 238 60 345 317 328 328 217 241 261 249 253 284 324 324 323 334 334 335 337 333 334 337 338 341 345 348 351 353 353 354 353 353 353 354 354 354 354 355 356 356 356 356 356 357 358 359 0 0 0 359 357 354 348 338 326 310 294 281
185 261 284 293 304 306 297 290 292 297 294 287 280 272 270 268 265 266 269 268 265 261 265 274 273 274 284 189 160 124 325 276 284 288 258 253 262 255 255 275 291 286 292 299 302 310 314 315 316 317 323 331 336 339 342 344 346 347 346 347 348 349 351 351 349 350 351 350 350 350 351 352 354 355 358 359 359 358 356 355 352 347 340 328 313 298
265 296 342 1 313 295 290 287 288 294 292 286 284 275 265 263 262 264 265 262 260 262 264 265 265 269 295 113 193 255 262 266 277 280 268 254 257 273 281 288 286 271 256 252 261 272 281 291 299 301 307 313 319 326 331 333 337 339 339 340 341 342 344 345 343 344 344 344 345 346 347 349 350 352 354 355 356 356 354 353 352 350 345 338 328 315
307 306 332 335 300 282 286 289 294 309 305 284 275 268 262 260 257 255 257 259 261 265 268 268 267 265 132 143 256 252 236 269 281 273 268 250 237 252 270 280 288 280 266 259 254 255 263 271 279 283 289 297 305 313 318 322 327 330 331 333 334 335 336 336 336 336 336 338 340 342 344 345 346 348 349 351 352 352 352 351 350 349 345 341 335 326
244 265 292 290 281 280 284 292 323 348 305 277 263 255 256 259 261 260 260 260 257 249 257 265 261 190 174 196 235 261 255 275 281 276 281 275 256 250 260 272 284 286 280 274 266 261 259 259 266 274 283 293 300 305 312 317 318 319 323 325 327 329 329 329 329 329 330 332 334 336 339 341 342 343 343 344 345 346 348 348 347 345 343 339 336 330
228 248 252 241 260 274 284 338 18 307 274 273 270 228 244 257 263 268 260 240 229 195 158 196 145 153 180 192 207 247 249 244 258 262 270 279 276 267 267 270 279 286 284 276 269 265 258 260 269 277 286 294 297 301 308 312 312 313 317 319 321 323 322 321 322 323 324 326 328 331 334 336 337 338 338 339 339 340 342 343 342 342 340 337 334 329
233 240 241 207 226 259 326 31 307 264 253 274 306 95 261 255 207 255 266 236 218 150 114 117 166 187 196 201 212 232 235 231 240 248 255 261 255 253 263 269 276 285 289 285 279 272 264 262 268 277 287 295 299 301 304 307 310 312 313 315 317 317 315 314 314 315 317 318 321 326 330 331 332 331 332 333 334 334 335 335 335 336 337 335 331 327
226 218 206 194 210 230 75 198 243 258 298 299 283 162 75 60 103 65 306 260 219 168 141 162 212 215 215 224 227 232 233 234 248 251 251 254 248 240 244 252 260 270 278 283 281 277 277 277 278 287 297 303 305 303 301 305 308 308 306 309 310 310 310 310 309 310 312 313 317 322 325 327 326 325 325 326 326 326 327 327 327 328 330 330 328 325
206 190 184 222 230 215 210 227 246 302 315 296 277 211 133 152 153 143 286 257 214 186 171 187 222 228 226 235 245 244 231 24 319 271 254 248 243 235 230 234 242 249 257 267 274 278 283 285 286 292 300 305 304 300 299 302 306 303 301 302 303 304 306 305 304 307 311 312 315 319 321 323 322 320 319 319 318 317 318 319 319 320 322 322 321 320
205 203 198 225 245 209 210 252 263 277 282 266 245 249 247 227 186 144 109 275 217 197 194 189 218 237 230 234 251 251 199 13 294 279 272 255 240 232 232 237 241 244 249 258 268 275 282 284 285 290 297 299 297 296 297 301 303 300 296 296 299 301 302 301 302 306 309 311 313 316 318 320 320 317 315 313 311 311 312 312 311 312 314 314 313 313
198 213 207 222 255 231 220 245 243 248 262 223 214 239 239 212 171 103 27 312 218 199 207 196 220 246 239 237 245 211 136 264 270 277 282 271 247 231 234 241 246 249 250 254 261 270 276 279 283 290 295 294 292 295 300 302 303 299 294 295 298 299 297 297 300 304 306 307 308 310 313 316 317 315 312 309 308 309 309 308 306 306 307 307 306 305
144 220 217 213 235 240 240 251 247 246 260 222 215 230 225 191 112 57 320 282 201 209 220 195 217 248 248 242 236 173 185 240 258 271 275 275 267 248 240 243 247 250 253 259 268 274 274 276 282 290 294 294 294 298 301 303 303 299 294 296 299 296 294 295 298 302 303 302 302 304 307 310 313 312 309 307 307 308 307 305 304 304 304 303 301 299
30 339 258 222 232 238 239 250 261 257 251 236 226 215 192 121 43 309 266 233 188 221 230 196 217 248 248 241 234 205 220 237 251 272 281 286 286 274 260 256 256 259 265 272 280 283 282 285 291 294 293 293 295 297 298 300 300 294 292 295 294 291 293 297 299 300 299 297 298 300 303 306 307 306 304 303 304 306 305 303 302 301 301 299 298 296
190 32 308 255 231 241 240 252 277 280 252 220 215 202 153 114 263 242 226 188 206 254 268 239 240 251 245 242 241 235 243 254 265 276 282 281 279 278 275 272 272 278 286 293 297 300 303 306 304 299 295 295 295 295 296 297 293 289 290 290 287 288 294 298 298 297 296 296 298 299 301 302 302 301 299 300 302 304 302 301 300 300 298 296 294 291
184 151 257 222 192 235 249 234 253 271 253 152 137 229 196 174 205 242 280 295 292 301 307 292 274 263 247 248 253 254 263 274 277 279 279 278 282 287 289 295 302 303 306 309 308 307 311 309 303 298 296 296 296 295 297 295 289 287 287 285 285 290 295 295 294 295 295 296 298 298 299 299 298 297 296 297 299 300 298 297 297 297 295 292 290 287
194 170 233 235 200 181 214 222 221 229 244 142 140 196 235 223 235 288 304 301 301 303 298 286 283 273 255 250 261 269 277 281 282 287 293 298 308 314 311 316 318 313 312 310 305 306 309 305 300 298 297 296 296 296 296 294 290 288 285 284 288 294 295 293 294 296 296 296 297 297 297 297 296 295 294 294 295 295 294 293 294 293 291 288 285 282
212 192 213 237 222 181 205 240 242 209 217 232 199 216 253 270 281 286 280 275 279 281 282 286 289 291 295 294 279 277 282 288 297 311 322 321 318 314 310 309 308 307 308 305 304 307 308 304 300 298 296 296 296 296 295 294 290 286 284 287 292 295 295 296 297 296 295 296 295 294 295 295 294 293 292 292 292 290 288 288 289 288 287 285 282 277
231 204 167 246 271 257 243 255 260 259 265 264 256 258 267 273 278 279 268 262 267 279 304 328 320 327 352 7 339 294 291 307 322 322 320 315 306 303 305 307 308 310 309 306 307 311 312 308 302 298 296 296 296 297 297 296 292 287 286 291 295 297 297 298 298 296 294 293 292 292 293 293 292 292 292 291 289 286 283 282 282 282 282 281 277 272
248 204 174 232 260 265 258 256 254 252 258 263 266 273 273 269 271 276 275 280 303 359 23 24 19 13 22 30 16 321 301 309 319 311 307 306 300 301 307 308 309 310 308 307 311 314 314 310 304 301 298 296 296 298 299 298 295 291 292 295 298 298 299 298 296 294 293 291 291 291 290 290 289 290 290 289 287 285 281 278 276 275 275 274 272 269
241 174 181 227 242 244 250 260 262 255 255 259 261 266 273 277 286 336 43 38 46 60 51 37 37 34 25 11 348 313 301 303 309 307 305 300 297 301 308 308 309 310 310 312 315 316 314 309 304 303 301 297 298 301 301 300 298 297 299 301 302 303 303 299 296 294 291 290 289 288 287 286 286 286 286 285 284 281 279 276 275 272 270 269 268 267
158 203 193 205 238 251 258 267 273 276 272 263 255 259 291 320 337 43 53 39 37 34 18 18 30 25 355 329 319 313 302 301 308 309 300 296 298 304 309 311 311 311 311 313 315 315 313 310 307 307 304 301 302 304 303 301 300 301 303 304 304 305 303 298 295 292 289 287 286 285 284 284 283 282 281 281 280 278 275 273 273 272 273 271 268 265
167 239 232 198 239 258 259 259 259 266 274 269 255 245 37 40 54 60 44 27 28 18 358 350 344 337 334 323 326 322 300 298 311 313 299 295 300 307 311 312 311 310 312 315 316 315 313 311 310 309 306 304 305 306 304 303 302 303 304 303 302 301 298 295 292 289 286 284 283 282 282 282 281 280 279 279 280 281 280 278 275 273 273 274 273 270
205 235 236 228 243 255 260 259 246 236 264 272 197 125 92 33 50 64 44 15 14 15 7 349 330 322 322 321 326 321 302 301 315 315 304 299 303 309 312 312 312 315 317 319 319 316 313 312 310 309 306 306 306 305 303 302 302 302 302 301 299 297 294 290 288 285 284 283 281 280 281 281 280 281 280 279 279 280 282 282 281 277 272 271 272 273